| time (UTC) | temp F | wind direction | speed MPH | gust MPH | rain 1hr in | rain 24hr in | rain mn in | humidity % | barometer mb |
| 20260502221017 | 48 | 278 | 2.0 | 9.0 | 0.00 | 0.02 | 0.00 | 44 | 1016.5 |
| 20260502220016 | 48 | 280 | 1.0 | 4.0 | 0.00 | 0.02 | 0.00 | 45 | 1016.5 |
| 20260502215017 | 48 | 277 | 2.0 | 8.0 | 0.00 | 0.02 | 0.00 | 44 | 1016.4 |
| 20260502214017 | 48 | 283 | 2.0 | 7.0 | 0.00 | 0.02 | 0.00 | 44 | 1016.4 |
| 20260502213018 | 48 | 278 | 1.0 | 7.0 | 0.00 | 0.02 | 0.00 | 46 | 1016.4 |
| 20260502212018 | 48 | 284 | 2.0 | 8.0 | 0.00 | 0.02 | 0.00 | 45 | 1016.3 |
| 20260502211018 | 48 | 291 | 2.0 | 6.0 | 0.00 | 0.02 | 0.00 | 44 | 1016.4 |
| 20260502210015 | 49 | 281 | 2.0 | 4.0 | 0.00 | 0.02 | 0.00 | 43 | 1016.3 |
| 20260502205035 | 49 | 279 | 2.0 | 8.0 | 0.00 | 0.02 | 0.00 | 44 | 1016.3 |
| 20260502204035 | 49 | 277 | 2.0 | 5.0 | 0.00 | 0.02 | 0.00 | 46 | 1016.4 |
| 20260502203016 | 50 | 291 | 2.0 | 7.0 | 0.00 | 0.02 | 0.00 | 44 | 1016.8 |
| 20260502202015 | 50 | 247 | 1.0 | 3.0 | 0.00 | 0.02 | 0.00 | 45 | 1016.6 |
| 20260502201016 | 49 | 257 | 1.0 | 3.0 | 0.00 | 0.02 | 0.00 | 44 | 1016.5 |
| 20260502200016 | 49 | 281 | 3.0 | 9.0 | 0.00 | 0.02 | 0.00 | 44 | 1017.2 |
| 20260502195016 | 49 | 283 | 1.0 | 7.0 | 0.00 | 0.02 | 0.00 | 46 | 1016.6 |
| 20260502194036 | 50 | 277 | 2.0 | 7.0 | 0.00 | 0.02 | 0.00 | 44 | 1016.5 |
| 20260502193016 | 50 | 214 | 1.0 | 5.0 | 0.00 | 0.02 | 0.00 | 43 | 1017.3 |
| 20260502192017 | 50 | 265 | 2.0 | 8.0 | 0.00 | 0.02 | 0.00 | 46 | 1017.2 |
| 20260502191017 | 49 | 288 | 1.0 | 5.0 | 0.00 | 0.02 | 0.00 | 46 | 1017.4 |
| 20260502190017 | 48 | 294 | 2.0 | 8.0 | 0.00 | 0.02 | 0.00 | 48 | 1017.0 |
| 20260502185017 | 49 | 288 | 3.0 | 9.0 | 0.00 | 0.02 | 0.00 | 47 | 1017.3 |
| 20260502184015 | 49 | 279 | 2.0 | 7.0 | 0.00 | 0.02 | 0.00 | 48 | 1016.9 |
| 20260502183016 | 48 | 292 | 2.0 | 9.0 | 0.00 | 0.02 | 0.00 | 46 | 1017.3 |
| 20260502182016 | 49 | 283 | 3.0 | 8.0 | 0.00 | 0.02 | 0.00 | 46 | 1016.7 |
| 20260502181016 | 50 | 280 | 3.0 | 9.0 | 0.00 | 0.02 | 0.00 | 46 | 1017.6 |
| 20260502164016 | 48 | 279 | 3.0 | 10.0 | 0.00 | 0.02 | 0.00 | 49 | 1017.7 |
| 20260502163017 | 48 | 286 | 1.0 | 5.0 | 0.00 | 0.02 | 0.00 | 48 | 1017.7 |
| 20260502162016 | 47 | 283 | 2.0 | 7.0 | 0.00 | 0.02 | 0.00 | 52 | 1017.2 |
| 20260502161037 | 47 | 281 | 2.0 | 7.0 | 0.00 | 0.03 | 0.00 | 51 | 1018.5 |
| 20260502152018 | 47 | 271 | 1.0 | 5.0 | 0.00 | 0.06 | 0.00 | 55 | 1018.6 |
| 20260502151018 | 46 | 280 | 3.0 | 8.0 | 0.00 | 0.07 | 0.00 | 57 | 1018.0 |
| 20260502123017 | 39 | 276 | 1.0 | 4.0 | 0.00 | 0.14 | 0.00 | 79 | 1017.9 |
| 20260502122017 | 37 | 286 | 1.0 | 3.0 | 0.00 | 0.15 | 0.00 | 82 | 1017.5 |
| 20260502121018 | 36 | 300 | 2.0 | 5.0 | 0.00 | 0.15 | 0.00 | 85 | 1016.8 |
| 20260502115017 | 35 | 291 | 1.0 | 5.0 | 0.00 | 0.15 | 0.00 | 90 | 1016.6 |
| 20260502114018 | 34 | 296 | 0.0 | 1.0 | 0.00 | 0.15 | 0.00 | 91 | 1016.4 |
| 20260502113015 | 33 | 262 | 0.0 | 4.0 | 0.00 | 0.15 | 0.00 | 91 | 1016.1 |
| 20260502112018 | 33 | 232 | 0.0 | 1.0 | 0.00 | 0.15 | 0.00 | 91 | 1016.0 |
| 20260502111016 | 33 | 262 | 0.0 | 2.0 | 0.00 | 0.15 | 0.00 | 91 | 1015.8 |
| 20260502110016 | 33 | 256 | 0.0 | 2.0 | 0.00 | 0.15 | 0.00 | 91 | 1016.0 |
| 20260502105017 | 33 | 274 | 1.0 | 3.0 | 0.00 | 0.15 | 0.00 | 92 | 1015.9 |
| 20260502104016 | 33 | 273 | 1.0 | 3.0 | 0.00 | 0.15 | 0.00 | 93 | 1015.9 |
| 20260502103017 | 33 | 281 | 0.0 | 2.0 | 0.00 | 0.15 | 0.00 | 93 | 1015.9 |
| 20260502102017 | 33 | 261 | 0.0 | 4.0 | 0.00 | 0.15 | 0.00 | 93 | 1015.9 |
| 20260502101017 | 34 | 233 | 0.0 | 1.0 | 0.00 | 0.15 | 0.00 | 94 | 1015.9 |
| 20260502091016 | 34 | 244 | 0.0 | 2.0 | 0.00 | 0.15 | 0.00 | 97 | 1015.8 |
| 20260502071017 | 35 | 268 | 0.0 | 2.0 | 0.00 | 0.15 | 0.00 | 97 | 1015.7 |
| 20260502070017 | 35 | 227 | 0.0 | 1.0 | 0.00 | 0.15 | 0.00 | 97 | 1015.7 |
| 20260502065057 | 35 | 204 | 0.0 | 1.0 | 0.00 | 0.15 | 0.00 | 97 | 1015.7 |
| 20260502064037 | 35 | 208 | 0.0 | 1.0 | 0.00 | 0.15 | 0.00 | 97 | 1015.9 |
| 20260502063017 | 36 | 0.0 | 0.0 | 0.00 | 0.15 | 0.00 | 97 | 1015.9 | |
| 20260502062018 | 36 | 0.0 | 0.0 | 0.00 | 0.15 | 0.00 | 97 | 1015.9 | |
| 20260502061058 | 36 | 198 | 0.0 | 1.0 | 0.00 | 0.15 | 0.00 | 97 | 1016.0 |
| 20260502060018 | 36 | 190 | 0.0 | 1.0 | 0.00 | 0.15 | 0.00 | 97 | 1016.0 |
| 20260502055018 | 37 | 225 | 0.0 | 2.0 | 0.00 | 0.15 | 0.00 | 96 | 1016.0 |
| 20260502054018 | 37 | 224 | 0.0 | 0.0 | 0.00 | 0.15 | 0.00 | 96 | 1016.1 |
| 20260502053036 | 37 | 179 | 0.0 | 1.0 | 0.00 | 0.15 | 0.00 | 96 | 1016.3 |
| 20260502052016 | 37 | 187 | 0.0 | 2.0 | 0.00 | 0.15 | 0.00 | 97 | 1016.3 |
| 20260502051036 | 38 | 190 | 0.0 | 1.0 | 0.00 | 0.15 | 0.00 | 96 | 1016.2 |
| 20260502050015 | 38 | 218 | 0.0 | 1.0 | 0.00 | 0.15 | 0.00 | 96 | 1016.2 |
| 20260502045036 | 38 | 222 | 0.0 | 1.0 | 0.00 | 0.15 | 0.00 | 96 | 1016.2 |
| 20260502044036 | 38 | 263 | 0.0 | 0.0 | 0.00 | 0.15 | 0.00 | 96 | 1016.3 |
| 20260502043016 | 38 | 0.0 | 0.0 | 0.00 | 0.15 | 0.00 | 96 | 1016.1 | |
| 20260502042016 | 38 | 209 | 0.0 | 1.0 | 0.00 | 0.15 | 0.00 | 96 | 1016.3 |
| 20260502041017 | 38 | 183 | 0.0 | 1.0 | 0.00 | 0.15 | 0.00 | 95 | 1016.2 |
| 20260502040037 | 38 | 250 | 0.0 | 1.0 | 0.00 | 0.15 | 0.00 | 95 | 1016.1 |
| 20260502035017 | 38 | 0.0 | 0.0 | 0.00 | 0.15 | 0.15 | 95 | 1016.0 | |
| 20260502034017 | 38 | 272 | 0.0 | 1.0 | 0.00 | 0.15 | 0.15 | 95 | 1016.1 |
| 20260502033037 | 38 | 266 | 0.0 | 1.0 | 0.00 | 0.15 | 0.15 | 95 | 1016.0 |
| 20260502032037 | 38 | 203 | 0.0 | 1.0 | 0.00 | 0.15 | 0.15 | 94 | 1016.1 |
| 20260502031017 | 39 | 0.0 | 0.0 | 0.00 | 0.15 | 0.15 | 94 | 1016.1 | |
| 20260502030038 | 39 | 216 | 0.0 | 1.0 | 0.00 | 0.15 | 0.15 | 94 | 1016.2 |
| 20260502025018 | 39 | 196 | 0.0 | 1.0 | 0.00 | 0.15 | 0.15 | 93 | 1016.0 |
| 20260502024018 | 40 | 0.0 | 0.0 | 0.00 | 0.15 | 0.15 | 93 | 1016.2 | |
| 20260502023059 | 40 | 249 | 0.0 | 1.0 | 0.00 | 0.15 | 0.15 | 93 | 1016.1 |
| 20260502022015 | 40 | 270 | 0.0 | 0.0 | 0.00 | 0.15 | 0.15 | 92 | 1015.9 |
| 20260502021015 | 40 | 0.0 | 0.0 | 0.00 | 0.15 | 0.15 | 91 | 1015.6 | |
| 20260502020056 | 41 | 262 | 0.0 | 0.0 | 0.02 | 0.15 | 0.15 | 90 | 1015.5 |
| 20260502015016 | 42 | 0.0 | 0.0 | 0.02 | 0.15 | 0.15 | 89 | 1015.1 | |
| 20260502014016 | 42 | 284 | 0.0 | 1.0 | 0.02 | 0.15 | 0.15 | 88 | 1015.2 |
| 20260502013016 | 43 | 191 | 0.0 | 1.0 | 0.02 | 0.15 | 0.15 | 87 | 1015.1 |
| 20260502012016 | 43 | 188 | 0.0 | 1.0 | 0.02 | 0.15 | 0.15 | 86 | 1015.1 |
| 20260502011017 | 45 | 265 | 1.0 | 4.0 | 0.02 | 0.15 | 0.15 | 81 | 1015.1 |
| 20260502010017 | 47 | 292 | 1.0 | 6.0 | 0.00 | 0.13 | 0.13 | 71 | 1015.2 |
| 20260502005017 | 47 | 265 | 0.0 | 1.0 | 0.00 | 0.12 | 0.12 | 72 | 1014.9 |
| 20260502004017 | 47 | 274 | 0.0 | 2.0 | 0.00 | 0.12 | 0.12 | 72 | 1014.9 |
| 20260502003017 | 47 | 272 | 0.0 | 2.0 | 0.00 | 0.12 | 0.12 | 74 | 1014.7 |
| 20260502002017 | 47 | 227 | 0.0 | 2.0 | 0.00 | 0.12 | 0.12 | 73 | 1014.9 |
| 20260502001037 | 48 | 258 | 0.0 | 1.0 | 0.00 | 0.12 | 0.12 | 72 | 1015.0 |
| 20260502000018 | 48 | 215 | 0.0 | 1.0 | 0.00 | 0.12 | 0.12 | 71 | 1014.6 |
| 20260501235018 | 48 | 287 | 0.0 | 3.0 | 0.00 | 0.12 | 0.12 | 69 | 1014.4 |
| 20260501234018 | 48 | 274 | 0.0 | 2.0 | 0.00 | 0.12 | 0.12 | 68 | 1014.3 |
| 20260501233015 | 49 | 274 | 1.0 | 2.0 | 0.00 | 0.12 | 0.12 | 68 | 1014.3 |
| 20260501232015 | 49 | 252 | 0.0 | 2.0 | 0.00 | 0.12 | 0.12 | 67 | 1014.1 |
| 20260501231016 | 49 | 249 | 0.0 | 2.0 | 0.00 | 0.12 | 0.12 | 68 | 1014.4 |
| 20260501230016 | 49 | 249 | 1.0 | 2.0 | 0.00 | 0.12 | 0.12 | 70 | 1014.4 |
| 20260501225016 | 49 | 276 | 1.0 | 3.0 | 0.00 | 0.12 | 0.12 | 69 | 1014.2 |
| 20260501224016 | 49 | 279 | 1.0 | 4.0 | 0.00 | 0.12 | 0.12 | 68 | 1014.2 |
| 20260501223016 | 49 | 302 | 0.0 | 2.0 | 0.00 | 0.12 | 0.12 | 68 | 1014.2 |
| 20260501222016 | 50 | 265 | 1.0 | 3.0 | 0.00 | 0.12 | 0.12 | 68 | 1014.4 |